Regional Weather Roundup
Issued by NWS

Home | Current Version | Previous Version | Graphics & Text | Print | Product List | Glossary On
Versions: 1 2 3 4 5 6 7 8 9 10 11 12 13 14 15 16 17 18 19 20 21 22 23 24 25 26 27 28 29 30 31 32 33 34 35 36 37 38 39 40 41 42 43 44 45 46 47 48 49 50
849
ASUS43 KOAX 280602
RWRNE

WEATHER ROUNDUP FOR NEBRASKA
NATIONAL WEATHER SERVICE OMAHA NE
100 AM CDT TUE MAR 28 2017

NOTES: SATELLITE DATA IS BEING USED TO AUGMENT CLOUD COVER ABOVE
       12000 FEET.
       "FAIR" INDICATES FEW OR NO CLOUDS BELOW 12,000 FEET WITH NO
       SIGNIFICANT WEATHER AND/OR OBSTRUCTIONS TO VISIBILITY.

  * THESE STATIONS DO NOT REPORT WEATHER SUCH AS RAIN...SNOW OR FOG.

NEZ001>004-019>022-054>056-280700-
NEBRASKA PANHANDLE

CITY           SKY/WX    TMP DP  RH WIND       PRES   REMARKS
SCOTTSBLUFF    LGT RAIN  49  44  83 N13       29.87S
6HR MIN TEMP:  48; 6HR MAX TEMP:  62; 6HR PCP:  0.01;

ALLIANCE       CLOUDY    49  39  68 SE6       29.89R
6HR MIN TEMP:  49; 6HR MAX TEMP:  60;

CHADRON        CLOUDY    45  38  76 W6        29.90R
6HR MIN TEMP:  44; 6HR MAX TEMP:  64;

KIMBALL        LGT RAIN  46  46  99 S8        29.90S
SIDNEY         CLOUDY    50  37  61 S7        29.89R
6HR MIN TEMP:  50; 6HR MAX TEMP:  61;

$$

NEZ057>060-069>072-079>082-280700-
SOUTHWEST NEBRASKA

CITY           SKY/WX    TMP DP  RH WIND       PRES   REMARKS
NORTH PLATTE   CLOUDY    47  40  76 SE10      29.94R
6HR MIN TEMP:  45; 6HR MAX TEMP:  62;

IMPERIAL       CLOUDY    47  40  76 SE15      29.90S
6HR MIN TEMP:  47; 6HR MAX TEMP:  63;

LEXINGTON      CLEAR     41  38  91 SE7       29.98R FOG
MCCOOK         PTCLDY    45  41  86 SE15      29.94F
6HR MIN TEMP:  45; 6HR MAX TEMP:  61;

OGALLALA       PTCLDY    49  41  73 SE10G20   29.90S
$$

NEZ005>010-023>029-035>040-094-280700-
NORTH CENTRAL NEBRASKA

CITY           SKY/WX    TMP DP  RH WIND       PRES   REMARKS
VALENTINE      PTCLDY    48  40  73 SE8       29.95R
6HR MIN TEMP:  48; 6HR MAX TEMP:  59;

AINSWORTH      CLEAR     42  40  92 SE7       29.96R
BROKEN BOW     CLEAR     43  39  86 SE10      29.96S
6HR MIN TEMP:  43; 6HR MAX TEMP:  57;

O`NEILL        CLOUDY    47  42  81 SE7       29.98S
ORD            CLOUDY    44  39  82 S5        29.98R
6HR MIN TEMP:  44; 6HR MAX TEMP:  57;

THEDFORD       PTCLDY    44  42  92 SE6       29.95R
$$

NEZ041-046>049-061>064-073>077-083>087-280700-
SOUTH CENTRAL NEBRASKA

CITY           SKY/WX    TMP DP  RH WIND       PRES   REMARKS
GRAND ISLAND   CLEAR     39  39 100 S3        30.01R
6HR MIN TEMP:  37; 6HR MAX TEMP:  54;

AURORA         CLEAR     36  35  97 E7        30.01S FOG     WCI  30
HASTINGS       CLOUDY    41  39  93 S3        30.01R
6HR MIN TEMP:  41; 6HR MAX TEMP:  50;

HEBRON         PTCLDY    39  37  95 E3        30.02S FOG
HOLDREGE       CLEAR     38  37  96 SE8       29.98S FOG     WCI  33
KEARNEY *      CLOUDY    37  36  93 SE6       30.00S WCI  33
YORK           CLEAR     39  39 100 S3        30.03R
$$

NEZ011>018-030>034-042>045-280700-
NORTHEAST NEBRASKA

CITY           SKY/WX    TMP DP  RH WIND       PRES   REMARKS
NORFOLK        PTCLDY    37  35  92 CALM      30.02R
6HR MIN TEMP:  37; 6HR MAX TEMP:  56;

ALBION         CLOUDY    41  38  90 SE5       30.02R
FREMONT        CLOUDY    38  38 100 NE3       30.03S
TEKAMAH        CLOUDY    37  34  89 CALM      30.04R
6HR MIN TEMP:  36; 6HR MAX TEMP:  52;

WAYNE          CLEAR     40  38  95 CALM      30.04R
$$

NEZ050>053-065>068-078-088>093-280700-
SOUTHEAST NEBRASKA

CITY           SKY/WX    TMP DP  RH WIND       PRES   REMARKS
LINCOLN        CLOUDY    35  33  92 CALM      30.05R
6HR MIN TEMP:  34; 6HR MAX TEMP:  52;

OMAHA EPPLEY   CLOUDY    40  35  83 CALM      30.04R
6HR MIN TEMP:  40; 6HR MAX TEMP:  51;

BEATRICE       PTCLDY    41  39  94 CALM      30.03S
FALLS CITY     CLOUDY    47  42  83 NW3       30.03R
6HR MIN TEMP:  47; 6HR MAX TEMP:  51;

NEBRASKA CITY  CLOUDY    46  40  81 CALM      30.04R
PLATTSMOUTH    CLOUDY    46  38  72 CALM      30.04R
$$

NEZ044-045-051>053-067-280700-
OMAHA AREA

CITY           SKY/WX    TMP DP  RH WIND       PRES   REMARKS
OMAHA EPPLEY   CLOUDY    40  35  83 CALM      30.04R
6HR MIN TEMP:  40; 6HR MAX TEMP:  51;

FREMONT        CLOUDY    38  38 100 NE3       30.03S
MILLARD        CLOUDY    49  42  76 CALM      30.03S
OFFUTT AFB     CLOUDY    44  39  83 CALM      30.03R
PLATTSMOUTH    CLOUDY    46  38  72 CALM      30.04R
WAHOO          FAIR      38  37  95 CALM      30.04R FOG
$$




USA.gov is the U.S. government's official web portal to all federal, state and local government web resources and services.